Location: Kelshall
(52.0000°N, 0.0500°W)
Time: 13:09:32
(UTC+00:00)

Cosmos 2279 Rocket - Pass Details

Date: 18 September 2020
Orbit: 964 x 979 km, 82.9° (Epoch: 21 October)

Event Time Altitude Azimuth Distance (km) Brightness Sun altitude
Exits shadow 20:20:51 35° 106° (ESE) 1,524 4.5 -20.4°
Maximum altitude 20:21:46 37° 87° (E) 1,478 4.5 -20.5°
Drops below altitude 10° 20:27:26 10° 23° (NNE) 2,743 6.5 -21.2°
Sets 20:30:08 0° 15° (NNE) 3,696 7.3 -21.6°
